Location: Acton
(51.4942°N, 0.2232°W)
Time: 13:17:34
(UTC+00:00)

Cosmos 1975 - Pass Details

Date: 18 September 2020
Orbit: 541 x 562 km, 82.5° (Epoch: 21 October)

Event Time Altitude Azimuth Distance (km) Brightness Sun altitude
Rises 18:44:44 0° 183° (S) 2,744 6.3 -6.6°
Reaches altitude 10° 18:46:54 10° 181° (S) 1,852 5.4 -6.9°
Maximum altitude 18:50:58 72° 98° (E) 598 2.8 -7.5°
Drops below altitude 10° 18:55:03 10° 14° (NNE) 1,862 5.5 -8.2°
Sets 18:57:14 0° 13° (NNE) 2,760 6.4 -8.5°
